Weather History for Luxor, Egypt

Change the Weather History Date:

Thursday, October 4, 2012

  Actual Average Record
Temperature  
Mean Temperature 88 °F -  
Max Temperature 102 °F 90 °F 105 °F (2010)
Min Temperature 75 °F 64 °F 64 °F (2000)
Cooling Degree Days 24    
Growing Degree Days 38 (Base 50)    
Moisture  
Dew Point 56 °F    
Average Humidity 34    
Maximum Humidity 53    
Minimum Humidity 14    
Precipitation  
Precipitation 0.00 in 0.00 in - ()
Sea Level Pressure  
Sea Level Pressure 29.83 in    
Wind  
Wind Speed 3 mph ()    
Max Wind Speed 7 mph    
Max Gust Speed -    
Visibility 6.1 miles    
Events      
Averages and records for this station are not official NWS values.
T = Trace of Precipitation, MM = Missing Value Source: Averaged Metar Reports

Daily Weather History Graph

Daily Weather History Graph

Search for Another Location

Airport:

Trip Planner

Search our weather history database for the weather conditions in past years. The results will help you decide how hot, cold, wet, or windy it might be!

Date:

Astronomy

Oct. 04, 2012 Rise Set
Actual Time 5:42 AM EET 5:32 PM EET
Civil Twilight 5:19 AM EET 5:55 PM EET
Nautical Twilight 4:53 AM EET 6:22 PM EET
Astronomical Twilight 4:26 AM EET 6:48 PM EET
Moon 8:18 PM EET (10/4) 9:16 AM EET (10/4)
Length of Visible Light 12h 35m
Length of Day
11h 49m
Waning Gibbous, 84% of the Moon is Illuminated
Oct 4
Waning Gibbous
Oct 8
Last Quarter
Oct 15
New
Oct 22
First Quarter
Oct 29
Full

Hourly Weather History & Observations

Time (EET) Temp. Heat Index Dew Point Humidity Pressure Visibility Wind Dir Wind Speed Gust Speed Precip Events Conditions
12:00 AM 80.6 °F 80.8 °F 57.2 °F 45% 29.86 in - WSW 3.5 mph - N/A   Clear
1:00 AM 82.4 °F 81.7 °F 55.4 °F 39% 29.83 in - SW 6.9 mph - N/A   Clear
2:00 AM 81 °F - 55 °F 31% 29.84 in 6 mi SW 5.8 mph - -  
2:00 AM 80.6 °F 80.5 °F 55.4 °F 42% 29.83 in - SW 5.8 mph - N/A   Clear
3:00 AM 80.6 °F 80.5 °F 55.4 °F 42% 29.83 in - SW 4.6 mph - N/A   Clear
4:00 AM 78.8 °F - 55.4 °F 44% 29.83 in - SW 5.8 mph - N/A   Clear
5:00 AM 75.2 °F - 57.2 °F 53% 29.86 in - SE 2.3 mph - N/A   Clear
6:00 AM 75.2 °F - 57.2 °F 53% 29.86 in - Calm Calm - N/A   Clear
7:00 AM 78.8 °F - 59.0 °F 51% 29.86 in - Calm Calm - N/A   Clear
8:00 AM 82 °F - 60 °F 37% 29.88 in 6 mi Calm Calm - -  
8:00 AM 82.4 °F 82.9 °F 60.8 °F 48% 29.89 in - Calm Calm - N/A   Clear
9:00 AM 87.8 °F 86.5 °F 57.2 °F 35% 29.89 in - Calm Calm - N/A   Clear
10:00 AM 89.6 °F 88.9 °F 59.0 °F 36% 29.89 in - NW 3.5 mph - N/A   Clear
11:00 AM 93.2 °F 93.3 °F 60.8 °F 34% 29.86 in - West 3.5 mph - N/A   Clear
12:00 PM 95.0 °F 95.2 °F 60.8 °F 32% 29.83 in - West 3.5 mph - N/A   Clear
1:00 PM 98.6 °F 98.5 °F 59.0 °F 27% 29.83 in - NW 2.3 mph - N/A   Clear
2:00 PM 101 °F - 56 °F 14% 29.78 in 6 mi WNW 3.5 mph - -  
2:00 PM 100.4 °F 99.7 °F 57.2 °F 24% 29.80 in - WNW 3.5 mph - N/A   Clear
3:00 PM 102.2 °F 100.4 °F 53.6 °F 20% 29.77 in - WNW 2.3 mph - N/A   Clear
4:00 PM 100.4 °F 98.8 °F 55.4 °F 22% 29.77 in - WNW 6.9 mph - N/A   Clear
5:00 PM 96.8 °F 95.1 °F 55.4 °F 25% 29.77 in - WNW 2.3 mph - N/A   Clear
6:00 PM 93.2 °F 90.8 °F 53.6 °F 26% 29.77 in 6.2 mi WSW 2.3 mph - N/A   Partly Cloudy
7:00 PM 91.4 °F 89.4 °F 55.4 °F 29% 29.80 in 6.2 mi WSW 2.3 mph - N/A   Scattered Clouds
8:00 PM 89 °F - 53 °F 19% 29.81 in 6 mi West 4.6 mph - -   Partly Cloudy
8:00 PM 89.6 °F 87.3 °F 53.6 °F 29% 29.80 in 6.2 mi West 4.6 mph - N/A   Scattered Clouds
9:00 PM 89.6 °F - 51.8 °F 27% 29.83 in - Calm Calm - N/A   Clear
10:00 PM 86.0 °F - 50.0 °F 29% 29.83 in - Calm Calm - N/A   Clear
11:00 PM 84.2 °F - 50.0 °F 30% 29.83 in - Calm Calm - N/A   Clear